Weather in Bolshiye Bikshikhi

Russia / Chuvash Republic     55°31′57″N   47°27′17″E
temp.,
°C
wind,
m/s
gust,
m/s
humid.,
%
clouds,
%
prec.,
mm/h
press.,
hPa
HPBL,
m
15 may, sat
sat1500:00+18se2282100 0.0 101711
03:00+17sse3484100 0.0 101763
06:00+18sse4877100 0.0 1017182
09:00+24s61349100 0.0 1017621
12:00+27s71341100 0.0 10171224
15:00+27s6104183 0.0 10161347
18:00+23s61352100 0.0 1016372
21:00+18s413635 0.0 1016196
16 may, sun
sun1600:00+16s35656 0.0 101561
03:00+15s346488 0.0 101648
06:00+17s367058 0.0 1016165
09:00+22ssw465513 0.0 1016513
12:00+26ssw584151 0.0 10161249
15:00+27sw5947100 0.0 10161739
18:00+23sw3763100 0.0 1015186
21:00+18ssw337168 0.0 101629
17 may, mon
mon1700:00+16sw337889 0.0 101722
03:00+15wsw2278100 0.0 101816
06:00+18ssw127194 0.0 101887
09:00+23s235349 0.0 1018484
12:00+27s34435 0.0 10181042
15:00+29s473712 0.0 10173192
18:00+26s24545 0.0 101783
21:00+19ssw34551 0.0 101738
18 may, tue
tue1800:00+17sse33593 0.0 101730
03:00+16sse33623 0.0 101723
06:00+19sse24645 0.0 101797
09:00+25sse46455 0.0 1016431
12:00+28s573126 0.0 10161698
15:00+29se473495 0.0 10152674
18:00+23se4858100 0.0 1015156
21:00+20se4660100 0.0 101571
19 may, wed
wed1900:00+18se466091 0.0 101471
03:00+17se49575 0.0 1014125
06:00+18se41164100 0.0 1014175
09:00+24sse611465 0.0 1013523
12:00+28se711385 0.0 10121814
15:00+28se813395 0.0 10101412
18:00+24sse6124877 0.1 1007331
21:00+17se71679100 7.7 1010388